Morris, MN

8:27 PM CDT on May 25, 2017 (GMT -0500)
Morris Municipal

Weather History for KMOX - June, 2012

Change the Weather History Date:

Monday, June 4, 2012

  Actual Average Record
Temperature  
Mean Temperature 70 °F -  
Max Temperature 84 °F 70 °F 87 °F (1999)
Min Temperature 55 °F 50 °F 37 °F (1998)
Cooling Degree Days 4    
Growing Degree Days 20 (Base 50)    
Moisture  
Dew Point 40 °F    
Average Humidity 40    
Maximum Humidity 77    
Minimum Humidity 11    
Precipitation  
Precipitation 0.00 in - - ()
Sea Level Pressure  
Sea Level Pressure 29.92 in    
Wind  
Wind Speed 7 mph (North)    
Max Wind Speed 17 mph    
Max Gust Speed 24 mph    
Visibility 10 miles    
Events      
Averages and records for this station are not official NWS values.
T = Trace of Precipitation, MM = Missing Value Source: NWS Daily Summary

Daily Weather History Graph

Daily Weather History Graph

Search for Another Location

Airport or City:

Trip Planner

Search our weather history database for the weather conditions in past years. The results will help you decide how hot, cold, wet, or windy it might be!

Date:

Astronomy

Jun. 04, 2012 Rise Set
Actual Time 5:36 AM CDT 9:08 PM CDT
Civil Twilight 4:59 AM CDT 9:45 PM CDT
Nautical Twilight 4:09 AM CDT 10:35 PM CDT
Astronomical Twilight 3:05 AM CDT 11:40 PM CDT
Moon 9:38 PM CDT (6/4) 5:45 AM CDT (6/4)
Length of Visible Light 16h 46m
Length of Day
15h 31m
Full, 100% of the Moon is Illuminated
Jun 4
Full
Jun 11
Last Quarter
Jun 19
New
Jun 26
First Quarter
Jul 3
Full

Hourly Weather History & Observations

Time (CDT) Temp. Dew Point Humidity Pressure Visibility Wind Dir Wind Speed Gust Speed Precip Events Conditions
12:13 AM 62.6 °F 48.2 °F 59% 29.83 in 10.0 mi SSE 5.8 mph - N/A   Clear
12:33 AM 62.6 °F 48.2 °F 59% 29.83 in 10.0 mi SE 4.6 mph - N/A   Clear
12:53 AM 60.8 °F 48.2 °F 63% 29.83 in 10.0 mi SSE 5.8 mph - N/A   Scattered Clouds
1:13 AM 60.8 °F 48.2 °F 63% 29.83 in 10.0 mi SSE 4.6 mph - N/A   Mostly Cloudy
1:33 AM 62.6 °F 48.2 °F 59% 29.83 in 10.0 mi SSE 4.6 mph - N/A   Overcast
1:53 AM 62.6 °F 48.2 °F 59% 29.84 in 10.0 mi SSE 4.6 mph - N/A   Mostly Cloudy
2:12 AM 60.8 °F 48.2 °F 63% 29.84 in 10.0 mi SSE 3.5 mph - N/A   Clear
2:33 AM 60.8 °F 48.2 °F 63% 29.84 in 10.0 mi SSE 3.5 mph - N/A   Clear
2:53 AM 60.8 °F 48.2 °F 63% 29.85 in 10.0 mi Calm Calm - N/A   Clear
3:13 AM 60.8 °F 48.2 °F 63% 29.85 in 10.0 mi Calm Calm - N/A   Clear
3:33 AM 60.8 °F 48.2 °F 63% 29.85 in 10.0 mi Calm Calm - N/A   Clear
3:53 AM 57.2 °F 48.2 °F 72% 29.85 in 10.0 mi SSE 4.6 mph - N/A   Clear
4:13 AM 57.2 °F 48.2 °F 72% 29.86 in 10.0 mi ESE 5.8 mph - N/A   Clear
4:32 AM 57.2 °F 48.2 °F 72% 29.86 in 10.0 mi ESE 3.5 mph - N/A   Clear
4:53 AM 57.2 °F 48.2 °F 72% 29.86 in 4.0 mi SSE 3.5 mph - N/A   Haze
5:13 AM 55.4 °F 48.2 °F 77% 29.86 in 10.0 mi SE 6.9 mph - N/A   Clear
5:33 AM 57.2 °F 48.2 °F 72% 29.87 in 4.0 mi SE 5.8 mph - N/A   Drizzle
5:53 AM 55.4 °F 48.2 °F 77% 29.88 in 7.0 mi SSE 4.6 mph - N/A   Light Drizzle
6:13 AM 57.2 °F 48.2 °F 72% 29.89 in 10.0 mi Calm Calm - N/A   Clear
6:33 AM 57.2 °F 48.2 °F 72% 29.89 in 10.0 mi SW 3.5 mph - N/A   Clear
6:52 AM 60.8 °F 51.8 °F 72% 29.89 in 10.0 mi WSW 3.5 mph - N/A   Clear
7:13 AM 62.6 °F 53.6 °F 72% 29.90 in 10.0 mi West 4.6 mph - N/A   Clear
7:33 AM 64.4 °F 53.6 °F 68% 29.91 in 10.0 mi WNW 4.6 mph - N/A   Clear
7:53 AM 64.4 °F 53.6 °F 68% 29.92 in 10.0 mi WNW 4.6 mph - N/A   Clear
8:13 AM 66.2 °F 53.6 °F 64% 29.93 in 10.0 mi NW 6.9 mph - N/A   Clear
8:33 AM 69.8 °F 53.6 °F 56% 29.93 in 10.0 mi NNW 8.1 mph - N/A   Clear
8:53 AM 69.8 °F 51.8 °F 53% 29.93 in 10.0 mi NW 5.8 mph - N/A   Clear
9:12 AM 71.6 °F 51.8 °F 50% 29.93 in 10.0 mi NNW 8.1 mph - N/A   Clear
9:33 AM 73.4 °F 51.8 °F 47% 29.94 in 10.0 mi NNW 8.1 mph - N/A   Clear
9:53 AM 75.2 °F 51.8 °F 44% 29.94 in 10.0 mi North 9.2 mph - N/A   Clear
10:13 AM 75.2 °F 51.8 °F 44% 29.95 in 10.0 mi NNW 11.5 mph - N/A   Clear
10:33 AM 77.0 °F 51.8 °F 41% 29.95 in 10.0 mi North 11.5 mph 16.1 mph N/A   Clear
10:52 AM 78.8 °F 51.8 °F 39% 29.94 in 10.0 mi NNW 12.7 mph 18.4 mph N/A   Clear
11:33 AM 80.6 °F 48.2 °F 32% 29.94 in 10.0 mi North 13.8 mph 19.6 mph N/A   Clear
11:53 AM 82.4 °F 37.4 °F 20% 29.94 in 10.0 mi North 12.7 mph 24.2 mph N/A   Clear
12:12 PM 82.4 °F 37.4 °F 20% 29.94 in 10.0 mi North 16.1 mph 20.7 mph N/A   Clear
12:33 PM 82.4 °F 37.4 °F 20% 29.95 in 10.0 mi North 17.3 mph 21.9 mph N/A   Clear
12:53 PM 82.4 °F 35.6 °F 19% 29.95 in 10.0 mi NNW 13.8 mph 19.6 mph N/A   Clear
1:13 PM 82.4 °F 33.8 °F 17% 29.95 in 10.0 mi North 10.4 mph 20.7 mph N/A   Clear
1:33 PM 84.2 °F 32.0 °F 15% 29.96 in 10.0 mi North 15.0 mph 23.0 mph N/A   Clear
1:53 PM 84.2 °F 30.2 °F 14% 29.96 in 10.0 mi North 10.4 mph 19.6 mph N/A   Clear
2:13 PM 84.2 °F 28.4 °F 13% 29.95 in 10.0 mi NNE 13.8 mph 20.7 mph N/A   Clear
2:33 PM 84.2 °F 26.6 °F 12% 29.95 in 10.0 mi NNW 17.3 mph 24.2 mph N/A   Clear
2:53 PM 84.2 °F 26.6 °F 12% 29.95 in 10.0 mi NNW 15.0 mph 20.7 mph N/A   Clear
3:12 PM 84.2 °F 26.6 °F 12% 29.95 in 10.0 mi NNW 13.8 mph 19.6 mph N/A   Clear
3:33 PM 84.2 °F 24.8 °F 11% 29.95 in 10.0 mi NNE 11.5 mph 19.6 mph N/A   Clear
3:53 PM 84.2 °F 24.8 °F 11% 29.95 in 10.0 mi North 15.0 mph 20.7 mph N/A   Clear
4:13 PM 84.2 °F 23.0 °F 11% 29.94 in 10.0 mi North 9.2 mph 18.4 mph N/A   Clear
4:33 PM 84.2 °F 23.0 °F 11% 29.95 in 10.0 mi North 15.0 mph 21.9 mph N/A   Clear
4:53 PM 84.2 °F 26.6 °F 12% 29.94 in 10.0 mi NNW 15.0 mph 20.7 mph N/A   Clear
5:13 PM 84.2 °F 26.6 °F 12% 29.94 in 10.0 mi NNW 10.4 mph 23.0 mph N/A   Clear
5:33 PM 84.2 °F 28.4 °F 13% 29.94 in 10.0 mi North 13.8 mph 24.2 mph N/A   Clear
5:53 PM 84.2 °F 28.4 °F 13% 29.94 in 10.0 mi NNW 13.8 mph - N/A   Clear
6:13 PM 82.4 °F 28.4 °F 14% 29.94 in 10.0 mi North 11.5 mph - N/A   Clear
6:33 PM 82.4 °F 26.6 °F 13% 29.94 in 10.0 mi North 13.8 mph 20.7 mph N/A   Clear
6:53 PM 82.4 °F 28.4 °F 14% 29.94 in 10.0 mi North 12.7 mph 19.6 mph N/A   Clear
7:13 PM 82.4 °F 28.4 °F 14% 29.94 in 10.0 mi NNE 16.1 mph - N/A   Clear
7:33 PM 80.6 °F 30.2 °F 16% 29.94 in 10.0 mi NNE 12.7 mph 19.6 mph N/A   Clear
7:53 PM 80.6 °F 30.2 °F 16% 29.95 in 10.0 mi NNE 11.5 mph - N/A   Clear
8:13 PM 78.8 °F 33.8 °F 20% 29.95 in 10.0 mi NNE 10.4 mph - N/A   Clear
8:33 PM 78.8 °F 33.8 °F 20% 29.95 in 10.0 mi NE 9.2 mph - N/A   Clear
8:53 PM 73.4 °F 37.4 °F 27% 29.96 in 10.0 mi NE 4.6 mph - N/A   Clear
9:13 PM 71.6 °F 37.4 °F 29% 29.96 in 10.0 mi NE 3.5 mph - N/A   Clear
9:33 PM 69.8 °F 37.4 °F 31% 29.96 in 10.0 mi NE 4.6 mph - N/A   Clear
9:53 PM 69.8 °F 37.4 °F 31% 29.96 in 10.0 mi East 3.5 mph - N/A   Clear
10:13 PM 69.8 °F 37.4 °F 31% 29.96 in 10.0 mi ENE 3.5 mph - N/A   Clear
10:33 PM 69.8 °F 37.4 °F 31% 29.96 in 10.0 mi Calm Calm - N/A   Clear
10:53 PM 69.8 °F 35.6 °F 28% 29.96 in 10.0 mi Calm Calm - N/A   Clear
11:19 PM 64.4 °F 41.0 °F 42% 29.96 in 10.0 mi Calm Calm - N/A   Clear
11:53 PM 64.4 °F 39.2 °F 40% 29.97 in 10.0 mi Calm Calm - N/A   Clear